W8SZ Weather Reports


time (UTC)temp
C
wind
direction
speed
KPH
gust
KPH
rain 1hr
cm
rain 24hr
cm
rain mn
cm
humidity
%
barometer
mb
20180919044349 13 25 0.0 0.0 0.00 0.00 0.00 100 1014.5
20180919043850 13 25 1.6 0.0 0.00 0.00 0.00 100 1014.7
20180919043355 13 25 3.2 0.0 0.00 0.00 0.00 100 1014.7
20180919042847 13 25 0.0 0.0 0.00 0.00 0.00 100 1014.4
20180919042350 13 25 0.0 0.0 0.00 0.00 0.00 100 1014.3
20180919041851 13 25 0.0 0.0 0.00 0.00 0.00 100 1014.3
20180919041354 13 25 0.0 0.0 0.00 0.00 0.00 100 1014.5
20180919040838 13 25 0.0 0.0 0.00 0.00 0.00 100 1014.6
20180919040404 13 25 0.0 0.0 0.00 0.00 0.00 100 1014.3
20180919035838 13 25 0.0 0.0 0.00 0.00 0.00 100 1014.2
20180919035344 13 25 0.0 0.0 0.00 0.00 0.00 100 1014.6
20180919034847 13 25 0.0 0.0 0.00 0.00 0.00 100 1014.5
20180919034411 13 25 0.0 0.0 0.00 0.00 0.00 100 1014.5
20180919033851 13 25 0.0 0.0 0.00 0.00 0.00 100 1014.6
20180919033356 13 25 0.0 0.0 0.00 0.00 0.00 100 1014.6
20180919032845 13 25 0.0 0.0 0.00 0.00 0.00 100 1014.7
20180919032349 13 25 0.0 0.0 0.00 0.00 0.00 100 1014.3
20180919031853 13 25 0.0 0.0 0.00 0.00 0.00 100 1014.6
20180919031352 13 25 0.0 0.0 0.00 0.00 0.00 100 1014.3
20180919030914 13 25 0.0 0.0 0.00 0.00 0.00 100 1014.3
20180919030417 13 25 1.6 0.0 0.00 0.00 0.00 100 1014.2
20180919025851 13 25 0.0 0.0 0.00 0.00 0.00 100 1014.5
20180919025353 13 25 0.0 0.0 0.00 0.00 0.00 100 1014.3
20180919024858 13 25 0.0 0.0 0.00 0.00 0.00 100 1014.0
20180919024403 13 25 0.0 0.0 0.00 0.00 0.00 100 1014.0
20180919023846 13 25 0.0 0.0 0.00 0.00 0.00 100 1013.8
20180919023409 13 25 0.0 0.0 0.00 0.00 0.00 100 1013.8
20180919022839 13 25 0.0 0.0 0.00 0.00 0.00 100 1013.8
20180919022400 13 25 0.0 0.0 0.00 0.00 0.00 100 1014.0
20180919021840 13 25 0.0 0.0 0.00 0.00 0.00 100 1013.7
20180919021343 13 25 0.0 0.0 0.00 0.00 0.00 100 1013.8
20180919020910 13 25 1.6 0.0 0.00 0.00 0.00 100 1013.8
20180919020354 13 25 0.0 0.0 0.00 0.00 0.00 100 1013.5
20180919015847 13 25 0.0 0.0 0.00 0.00 0.00 100 1013.7
20180919015350 13 25 0.0 0.0 0.00 0.00 0.00 100 1013.9
20180919014912 13 25 1.6 0.0 0.00 0.00 0.00 100 1013.8
20180919014351 13 25 0.0 0.0 0.00 0.00 0.00 100 1013.9
20180919013855 13 25 0.0 0.0 0.00 0.00 0.00 100 1013.7
20180919013354 13 25 0.0 0.0 0.00 0.00 0.00 100 1013.8
20180919012844 13 25 0.0 0.0 0.00 0.00 0.00 100 1014.1
20180919012409 13 25 0.0 0.0 0.00 0.00 0.00 100 1014.0
20180919011852 13 25 0.0 0.0 0.00 0.00 0.00 100 1013.9
20180919011353 13 25 0.0 0.0 0.00 0.00 0.00 100 1013.7
20180919010838 13 25 0.0 0.0 0.00 0.00 0.00 100 1013.8
20180919010403 13 25 0.0 0.0 0.00 0.00 0.00 100 1013.5
20180919005852 13 25 0.0 0.0 0.00 0.00 0.00 100 1014.1
20180919005353 13 25 0.0 0.0 0.00 0.00 0.00 100 1014.0
20180919004900 13 25 0.0 0.0 0.00 0.00 0.00 100 1013.8
20180919004340 13 25 1.6 0.0 0.00 0.00 0.00 100 1013.7
20180919003859 13 25 0.0 3.2 0.00 0.00 0.00 100 1013.5
20180919003404 14 25 0.0 1.6 0.00 0.00 0.00 100 1013.8
20180919002854 14 25 0.0 3.2 0.00 0.00 0.00 100 1013.2
20180919002415 14 25 0.0 3.2 0.00 0.00 0.00 100 1013.4
20180919001854 14 25 1.6 4.8 0.00 0.00 0.00 100 1013.4
20180919001353 14 25 0.0 4.8 0.00 0.00 0.00 100 1013.4
20180919000856 14 25 0.0 6.4 0.00 0.00 0.00 100 1013.5
20180919000346 15 25 1.6 6.4 0.00 0.00 0.00 100 1013.4
20180918235852 15 25 1.6 8.0 0.00 0.00 0.00 100 1013.3
20180918235415 15 25 3.2 8.0 0.00 0.00 0.00 100 1013.4
20180918234839 15 25 3.2 9.7 0.00 0.00 0.00 100 1013.8
20180918234416 15 25 4.8 14.5 0.00 0.00 0.00 100 1013.6
20180918233858 15 25 8.0 19.3 0.00 0.00 0.00 100 1013.4
20180918233419 15 26 6.4 19.3 0.00 0.00 0.00 100 1013.3
20180918232848 15 27 8.0 14.5 0.00 0.00 0.00 99 1013.4
20180918232351 15 27 8.0 19.3 0.00 0.00 0.00 99 1013.2
20180918231853 15 30 8.0 19.3 0.00 0.00 0.00 99 1013.2
20180918231353 15 43 14.5 19.3 0.00 0.00 0.00 98 1013.8
20180918230854 15 46 11.3 17.7 0.00 0.00 0.00 99 1013.1
20180918230356 15 47 14.5 17.7 0.00 0.00 0.00 99 1013.4
20180918225916 15 40 11.3 17.7 0.00 0.00 0.00 99 1013.3
20180918225355 15 40 11.3 17.7 0.00 0.00 0.00 99 1012.9
20180918224838 15 40 11.3 17.7 0.00 0.00 0.00 98 1012.8
20180918224341 15 37 9.7 17.7 0.00 0.00 0.00 98 1013.0
20180918223845 15 36 11.3 17.7 0.00 0.00 0.00 98 1012.8
20180918223424 15 35 12.9 19.3 0.00 0.00 0.00 98 1013.0
20180918222851 15 41 11.3 19.3 0.00 0.00 0.00 98 1013.3
20180918222354 15 40 9.7 19.3 0.00 0.00 0.00 97 1013.2
20180918221854 15 46 11.3 19.3 0.00 0.00 0.00 97 1013.6
20180918221415 15 37 12.9 17.7 0.00 0.00 0.00 98 1013.8
20180918220912 15 31 8.0 22.5 0.00 0.00 0.00 97 1013.2
20180918220355 15 30 14.5 22.5 0.00 0.00 0.00 97 1013.3
20180918215844 15 27 14.5 19.3 0.00 0.00 0.00 97 1013.4
20180918215404 15 34 11.3 19.3 0.00 0.00 0.00 98 1012.9
20180918214848 15 47 14.5 19.3 0.00 0.00 0.00 98 1013.3
20180918214344 15 52 14.5 19.3 0.00 0.00 0.00 99 1013.0
20180918213844 15 59 11.3 17.7 0.00 0.00 0.00 100 1013.1
20180918213405 16 59 12.9 17.7 0.00 0.00 0.00 99 1013.3
20180918212854 16 51 11.3 17.7 0.00 0.00 0.00 98 1012.9
20180918212357 16 52 12.9 17.7 0.00 0.00 0.00 98 1013.1
20180918211900 16 47 12.9 19.3 0.00 0.00 0.00 98 1012.9
20180918211433 16 47 12.9 19.3 0.00 0.00 0.00 98 1012.6
20180918210856 16 48 14.5 17.7 0.00 0.00 0.00 98 1012.5
20180918210155 16 46 9.7 0.0 0.00 0.00 0.00 98 1012.8
20180918205507 16 45 12.9 0.0 0.00 0.00 0.00 97 1012.9
20180918204052 16 44 16.1 0.0 0.00 0.00 0.00 97 1012.8
20180918202836 16 45 14.5 0.0 0.00 0.00 0.00 97 1012.6
20180918202343 16 44 14.5 0.0 0.00 0.00 0.00 97 1012.6
20180918201905 16 40 14.5 0.0 0.00 0.00 0.00 96 1012.5
20180918201348 16 33 14.5 0.0 0.00 0.00 0.00 95 1012.8
20180918200858 16 35 14.5 0.0 0.00 0.00 0.00 95 1012.7
20180918200421 16 46 11.3 0.0 0.00 0.00 0.00 95 1012.7
20180918195837 16 47 16.1 0.0 0.00 0.00 0.00 95 1012.5
20180918195341 16 46 14.5 0.0 0.00 0.00 0.00 95 1012.4
20180918194840 17 49 12.9 0.0 0.00 0.00 0.00 95 1012.6
20180918194343 17 44 16.1 0.0 0.00 0.00 0.00 94 1012.8
20180918193847 17 48 11.3 0.0 0.00 0.00 0.00 94 1012.4
20180918193400 17 37 16.1 0.0 0.00 0.00 0.00 93 1012.6
20180918192851 17 39 17.7 0.0 0.00 0.00 0.00 93 1012.5
20180918192339 17 43 16.1 0.0 0.00 0.00 0.00 93 1012.6
20180918191839 17 40 17.7 0.0 0.00 0.00 0.00 93 1012.7
20180918191342 17 34 17.7 0.0 0.00 0.00 0.00 93 1013.0
20180918190849 17 40 17.7 0.0 0.00 0.00 0.00 93 1012.9
20180918190355 17 44 12.9 0.0 0.00 0.00 0.00 93 1012.6
20180918185837 17 42 17.7 0.0 0.00 0.00 0.00 94 1013.0
20180918185400 17 50 17.7 0.0 0.00 0.00 0.00 94 1013.0
20180918184838 17 38 17.7 0.0 0.00 0.00 0.00 94 1012.8
20180918184342 17 43 16.1 0.0 0.00 0.00 0.00 94 1012.9
20180918183903 17 42 9.7 0.0 0.00 0.00 0.00 94 1013.1
20180918183413 17 39 14.5 0.0 0.00 0.00 0.00 93 1012.7
20180918182842 17 43 12.9 0.0 0.00 0.00 0.00 94 1013.1
20180918182338 17 39 11.3 0.0 0.00 0.00 0.00 94 1012.8
20180918181839 17 41 14.5 0.0 0.00 0.00 0.00 94 1012.8
20180918181343 17 43 19.3 0.0 0.00 0.00 0.00 94 1013.3
20180918180839 17 43 16.1 0.0 0.00 0.00 0.00 94 1013.0
20180918180351 17 37 16.1 0.0 0.00 0.00 0.00 93 1013.0
20180918175843 17 38 14.5 0.0 0.00 0.00 0.00 94 1012.9
20180918175346 17 33 14.5 0.0 0.00 0.00 0.00 94 1012.8
20180918174843 17 37 12.9 0.0 0.00 0.00 0.00 95 1012.9
20180918174344 17 35 17.7 0.0 0.00 0.00 0.00 94 1013.5
20180918173838 17 41 17.7 0.0 0.00 0.00 0.00 94 1013.0
20180918173405 17 30 14.5 0.0 0.00 0.00 0.00 94 1013.4
20180918172834 17 35 9.7 0.0 0.00 0.00 0.00 95 1013.1
20180918172340 17 31 16.1 0.0 0.00 0.00 0.00 94 1013.2
20180918171841 16 33 16.1 0.0 0.00 0.00 0.00 95 1013.0
20180918171344 16 31 14.5 0.0 0.00 0.00 0.00 95 1013.3
20180918170845 16 33 16.1 0.0 0.00 0.00 0.00 96 1013.8
20180918170350 16 41 17.7 0.0 0.00 0.00 0.00 97 1013.4
20180918165839 16 35 12.9 0.0 0.00 0.00 0.00 97 1013.4
20180918165343 16 36 19.3 0.0 0.00 0.00 0.00 97 1013.3
20180918164850 16 35 8.0 0.0 0.00 0.00 0.00 97 1013.2
20180918164409 16 36 19.3 0.0 0.00 0.00 0.00 98 1013.6
20180918163850 16 26 9.7 0.0 0.00 0.00 0.00 97 1013.2
20180918163408 16 38 20.9 0.0 0.00 0.00 0.00 98 1013.0
20180918162842 16 29 16.1 0.0 0.00 0.00 0.00 97 1013.7
20180918162343 16 38 22.5 0.0 0.00 0.00 0.00 97 1013.0
20180918161843 16 29 19.3 0.0 0.00 0.00 0.00 97 1013.2
20180918161339 16 30 19.3 0.0 0.00 0.00 0.00 97 1013.4
20180918160843 16 36 17.7 0.0 0.00 0.00 0.00 98 1013.3
20180918160355 16 29 12.9 0.0 0.00 0.00 0.00 98 1013.4
20180918155852 16 35 12.9 0.0 0.00 0.00 0.00 99 1013.4
20180918155351 16 34 11.3 0.0 0.00 0.00 0.00 99 1013.5
20180918154852 16 36 11.3 19.3 0.00 0.00 0.00 98 1013.4
20180918154353 16 35 9.7 20.9 0.00 0.00 0.00 99 1013.5
20180918153842 16 33 14.5 20.9 0.00 0.00 0.00 99 1013.4
20180918153346 16 25 11.3 19.3 0.00 0.00 0.00 100 1013.5
20180918152910 16 22 9.7 16.1 0.00 0.00 0.00 100 1013.8
20180918152348 16 29 11.3 16.1 0.00 0.00 0.00 100 1013.9
20180918151850 16 25 8.0 16.1 0.00 0.00 0.00 100 1013.8
20180918151345 16 25 6.4 19.3 0.00 0.00 0.00 100 1014.0
20180918150842 16 26 11.3 19.3 0.00 0.00 0.00 100 1013.9
20180918150424 16 31 12.9 22.5 0.00 0.00 0.00 100 1013.9
20180918145851 16 30 8.0 22.5 0.00 0.00 0.00 100 1014.2
20180918145353 16 19 8.0 25.7 0.00 0.00 0.00 100 1013.8
20180918144854 16 32 11.3 25.7 0.00 0.00 0.00 100 1014.1
20180918144355 16 25 14.5 25.7 0.00 0.00 0.00 100 1013.4
20180918143855 16 9 14.5 25.7 0.00 0.00 0.00 100 1013.4
20180918143355 16 20 14.5 25.7 0.00 0.00 0.00 99 1013.2
20180918142846 17 24 19.3 30.6 0.00 0.00 0.00 99 1013.0
20180918142350 17 27 16.1 30.6 0.00 0.00 0.00 97 1012.8
20180918141839 17 20 20.9 0.0 0.00 0.00 0.00 97 1013.3
20180918141343 17 35 16.1 0.0 0.00 0.00 0.00 97 1013.0
20180918140848 17 25 17.7 0.0 0.00 0.00 0.00 97 1013.2
20180918140349 17 31 8.0 0.0 0.00 0.00 0.00 97 1013.1
20180918135837 17 27 16.1 0.0 0.00 0.00 0.00 97 1012.9
20180918135338 17 18 14.5 0.0 0.00 0.00 0.00 97 1012.7
20180918134836 17 13 12.9 0.0 0.00 0.00 0.00 97 1012.7
20180918134339 17 26 6.4 0.0 0.00 0.00 0.00 99 1013.5
20180918133843 16 31 11.3 0.0 0.00 0.00 0.00 99 1013.3
20180918132937 16 18 9.7 0.0 0.00 0.00 0.00 100 1012.8
20180918132539 15 23 11.3 0.0 0.00 0.00 0.00 100 1012.8
20180918094335 13 25 0.0 0.0 0.00 0.00 0.00 100 1012.0
20180918093841 13 25 0.0 0.0 0.00 0.00 0.00 100 1011.9
20180918093353 13 25 0.0 0.0 0.00 0.00 0.00 100 1011.8
20180918092842 13 24 1.6 0.0 0.00 0.00 0.00 100 1011.5
20180918092335 13 25 6.4 0.0 0.00 0.00 0.00 100 1011.7
20180918091344 14 24 6.4 0.0 0.00 0.00 0.00 100 1011.6
20180918090838 14 24 3.2 0.0 0.00 0.00 0.00 100 1011.7
20180918090353 14 25 6.4 0.0 0.00 0.00 0.00 100 1011.6
20180918085845 14 24 4.8 0.0 0.00 0.00 0.00 100 1011.5
20180918085346 14 25 3.2 0.0 0.00 0.00 0.00 100 1011.3
20180918084857 14 24 0.0 0.0 0.00 0.00 0.00 100 1011.3
20180918084341 14 25 0.0 0.0 0.00 0.00 0.00 100 1011.8
20180918083839 14 24 4.8 0.0 0.00 0.00 0.00 100 1011.8
20180918083344 14 24 0.0 0.0 0.00 0.00 0.00 100 1011.4
20180918082839 15 25 3.2 0.0 0.00 0.00 0.00 100 1011.6
20180918082342 15 25 0.0 0.0 0.00 0.00 0.00 100 1011.3
20180918081843 15 25 0.0 0.0 0.00 0.00 0.00 100 1011.4
20180918081405 15 25 3.2 0.0 0.00 0.00 0.00 99 1011.1
20180918080844 15 25 3.2 0.0 0.00 0.00 0.00 99 1011.5
20180918080408 15 25 3.2 0.0 0.00 0.00 0.00 98 1011.1
20180918075838 15 25 6.4 0.0 0.00 0.00 0.00 98 1011.4
20180918075341 15 25 3.2 0.0 0.00 0.00 0.00 98 1011.3
20180918074846 15 25 9.7 0.0 0.00 0.00 0.00 98 1011.2
20180918074346 15 25 3.2 0.0 0.00 0.00 0.00 98 1012.1
20180918073834 15 25 1.6 0.0 0.00 0.00 0.00 98 1011.5
20180918073402 15 25 4.8 0.0 0.00 0.00 0.00 98 1011.7
20180918072838 15 25 11.3 0.0 0.00 0.00 0.00 98 1011.6
20180918072340 15 26 3.2 0.0 0.00 0.00 0.00 98 1012.0
20180918071840 15 14 4.8 0.0 0.00 0.00 0.00 97 1012.4
20180918071341 16 15 0.0 0.0 0.00 0.00 0.00 97 1011.9
20180918070846 16 14 1.6 0.0 0.00 0.00 0.00 97 1011.6
20180918070421 16 14 3.2 0.0 0.00 0.00 0.00 97 1012.2
20180918065846 16 16 3.2 0.0 0.00 0.00 0.00 97 1011.9
20180918065337 16 16 3.2 0.0 0.00 0.00 0.00 97 1012.0
20180918064839 16 16 4.8 0.0 0.00 0.00 0.00 97 1011.9
20180918064341 16 16 0.0 0.0 0.00 0.00 0.00 97 1012.0
20180918063904 16 16 0.0 0.0 0.00 0.00 0.00 97 1011.5
20180918063347 16 16 0.0 0.0 0.00 0.00 0.00 97 1011.5
20180918062835 16 16 9.7 0.0 0.00 0.00 0.00 97 1011.3
20180918062338 16 16 0.0 0.0 0.00 0.00 0.00 97 1011.3
20180918061842 16 16 6.4 0.0 0.00 0.00 0.00 99 1011.1
20180918061345 16 13 4.8 0.0 0.00 0.00 0.00 99 1011.8
20180918060838 16 13 1.6 0.0 0.00 0.00 0.00 99 1011.6
20180918060353 16 13 3.2 0.0 0.00 0.00 0.00 100 1011.8
20180918055846 16 13 4.8 0.0 0.00 0.00 0.00 99 1011.6
20180918055337 16 14 0.0 0.0 0.00 0.00 0.00 99 1011.7
20180918054843 16 14 3.2 0.0 0.00 0.00 0.00 99 1011.4
20180918054359 16 15 6.4 0.0 0.00 0.00 0.00 100 1011.8
20180918053842 16 14 0.0 0.0 0.00 0.00 0.00 100 1011.2
20180918053355 16 14 3.2 0.0 0.00 0.00 0.00 100 1011.6
20180918052912 16 13 0.0 0.0 0.00 0.00 0.00 100 1011.6
20180918052351 17 13 1.6 0.0 0.00 0.00 0.00 100 1011.4
20180918051836 17 13 4.8 0.0 0.00 0.00 0.00 99 1011.8
20180918051339 17 13 3.2 0.0 0.00 0.00 0.00 99 1011.7
20180918050845 17 13 3.2 0.0 0.00 0.00 0.00 99 1011.7
20180918050356 17 13 3.2 0.0 0.00 0.00 0.00 99 1011.9
20180918045844 17 13 4.8 0.0 0.00 0.00 0.00 99 1012.0
20180918045334 17 13 4.8 0.0 0.00 0.00 0.00 100 1011.9
20180918044901 17 13 8.0 0.0 0.00 0.00 0.00 99 1011.8